GW4808 Weather Reports


Display with metric or nautical units.
time (UTC)temp
F
wind
direction
speed
MPH
gust
MPH
rain 1hr
in
rain 24hr
in
rain mn
in
humidity
%
barometer
mb
20260509201304 57 263 2.0 4.0 0.00 0.00 0.00 99 1019.8
20260509200704 58 257 2.0 3.0 0.00 0.00 0.00 99 1019.7
20260509200104 58 156 2.0 3.0 0.00 0.00 0.00 99 1019.6
20260509194905 59 93 4.0 6.0 0.00 0.00 0.00 98 1019.4
20260509194305 59 111 2.0 5.0 0.00 0.00 0.00 99 1019.1
20260509193705 59 147 2.0 3.0 0.00 0.00 0.00 98 1019.2
20260509193105 59 128 2.0 4.0 0.00 0.00 0.00 99 1019.2
20260509191905 58 178 2.0 3.0 0.00 0.00 0.00 99 1019.3
20260509191305 57 248 2.0 3.0 0.00 0.00 0.00 99 1019.2
20260509190705 57 254 2.0 3.0 0.00 0.00 0.00 99 1019.2
20260509190105 56 260 2.0 3.0 0.00 0.00 0.00 99 1019.2
20260509185505 56 266 3.0 4.0 0.00 0.00 0.00 99 1019.2
20260509184905 56 288 3.0 4.0 0.00 0.00 0.00 99 1019.2
20260509184305 57 282 2.0 4.0 0.00 0.00 0.00 99 1019.1
20260509183704 56 276 2.0 3.0 0.00 0.00 0.00 99 1019.0
20260509183105 56 264 1.0 3.0 0.00 0.00 0.00 99 1018.9
20260509182505 56 281 2.0 3.0 0.00 0.00 0.00 99 1018.9
20260509181905 56 283 2.0 3.0 0.00 0.00 0.00 99 1018.9
20260509181305 56 277 2.0 4.0 0.00 0.00 0.00 99 1018.7
20260509175504 57 277 2.0 3.0 0.00 0.00 0.00 99 1018.9
20260509174904 58 292 1.0 3.0 0.00 0.00 0.00 98 1018.8
20260509173704 58 284 1.0 2.0 0.00 0.00 0.00 99 1018.8
20260509173104 58 100 2.0 4.0 0.00 0.00 0.00 99 1018.8
20260509171904 58 207 2.0 3.0 0.00 0.00 0.00 99 1018.7
20260509171304 58 271 2.0 3.0 0.00 0.00 0.00 98 1018.8
20260509170705 58 268 2.0 3.0 0.00 0.00 0.00 98 1018.8
20260509164904 58 267 1.0 3.0 0.00 0.00 0.00 99 1018.8
20260509164304 58 265 1.0 2.0 0.00 0.00 0.00 99 1018.8
20260509162504 59 118 2.0 4.0 0.00 0.00 0.00 97 1019.0
20260509161904 60 116 3.0 5.0 0.00 0.00 0.00 97 1019.0
20260509161305 60 109 3.0 5.0 0.00 0.00 0.00 97 1019.1
20260509160705 60 116 3.0 5.0 0.00 0.00 0.00 98 1019.2
20260509155505 60 139 2.0 3.0 0.00 0.00 0.00 97 1019.4
20260509154904 59 191 1.0 3.0 0.00 0.00 0.00 99 1019.5
20260509154304 59 262 1.0 2.0 0.00 0.00 0.00 98 1019.5
20260509153705 58 251 1.0 2.0 0.00 0.00 0.00 99 1019.5
20260509153104 58 257 1.0 2.0 0.00 0.00 0.00 99 1019.6
20260509152504 58 255 1.0 2.0 0.00 0.00 0.00 99 1019.5
20260509151905 58 257 2.0 2.0 0.00 0.00 0.00 98 1019.6
20260509151305 58 248 2.0 2.0 0.00 0.00 0.00 98 1019.7
20260509150704 59 211 1.0 2.0 0.00 0.00 0.00 97 1019.8
20260509150104 60 128 2.0 3.0 0.00 0.00 0.00 95 1019.8
20260509145504 60 108 3.0 4.0 0.00 0.00 0.00 97 1019.7
20260509144304 60 106 5.0 8.0 0.00 0.00 0.00 99 1019.8
20260509143704 60 104 5.0 8.0 0.00 0.00 0.00 99 1019.6
20260509143104 60 106 4.0 7.0 0.00 0.00 0.00 98 1019.6
20260509142504 60 114 3.0 5.0 0.00 0.00 0.00 98 1019.9
20260509141904 60 108 3.0 5.0 0.00 0.00 0.00 98 1020.0
20260509141304 60 109 4.0 5.0 0.00 0.00 0.00 98 1020.0
20260509140104 60 104 3.0 5.0 0.00 0.00 0.00 97 1020.0
20260509134904 61 107 3.0 4.0 0.00 0.00 0.00 96 1020.0
20260509134304 61 107 5.0 7.0 0.00 0.00 0.00 97 1020.1
20260509133104 62 95 6.0 12.0 0.00 0.00 0.00 95 1020.0
20260509132505 62 108 4.0 7.0 0.00 0.00 0.00 93 1020.2
20260509131905 63 94 5.0 7.0 0.00 0.00 0.00 93 1020.1
20260509131304 63 100 4.0 7.0 0.00 0.00 0.00 91 1020.2
20260509130704 64 109 4.0 7.0 0.00 0.00 0.00 91 1020.1
20260509125505 65 105 6.0 11.0 0.00 0.00 0.00 90 1020.1
20260509124905 65 100 7.0 11.0 0.00 0.00 0.00 90 1020.1
20260509124305 65 97 6.0 11.0 0.00 0.00 0.00 89 1020.1
20260509123705 65 104 7.0 13.0 0.00 0.00 0.00 90 1020.1
20260509122505 65 86 8.0 10.0 0.00 0.00 0.00 88 1020.2
20260509121905 65 92 8.0 11.0 0.00 0.00 0.00 88 1020.2
20260509121305 65 98 7.0 11.0 0.00 0.00 0.00 90 1020.3
20260509120105 64 91 8.0 13.0 0.00 0.00 0.00 90 1020.4
20260509114905 63 83 9.0 12.0 0.00 0.00 0.00 90 1020.4
20260509114304 62 91 7.0 12.0 0.00 0.00 0.00 93 1020.6
20260509113704 60 96 11.0 11.0 0.00 0.00 0.00 92 1020.5
20260509113105 60 103 8.0 14.0 0.00 0.00 0.00 88 1020.6
20260509112505 60 101 8.0 14.0 0.00 0.00 0.00 88 1020.7
20260509111905 59 86 7.0 10.0 0.00 0.00 0.00 88 1020.7
20260509111305 59 87 6.0 9.0 0.00 0.00 0.00 88 1020.6
20260509110705 59 89 6.0 8.0 0.00 0.00 0.00 87 1020.6
20260509105505 59 94 5.0 11.0 0.00 0.00 0.00 85 1020.6
20260509104304 60 89 5.0 8.0 0.00 0.00 0.00 83 1020.5
20260509103105 61 96 4.0 7.0 0.00 0.00 0.00 85 1020.6
20260509102505 61 99 5.0 6.0 0.00 0.00 0.00 88 1020.5
20260509101304 60 102 6.0 11.0 0.00 0.00 0.00 90 1020.5
20260509100105 59 108 6.0 9.0 0.00 0.00 0.00 87 1020.3
20260509094305 59 119 6.0 10.0 0.00 0.00 0.00 83 1020.1
20260509093705 59 98 6.0 10.0 0.00 0.00 0.00 81 1020.1
20260509092504 59 110 5.0 6.0 0.00 0.00 0.00 81 1020.0
20260509091305 59 131 4.0 6.0 0.00 0.00 0.00 81 1019.9
20260509090105 59 133 4.0 6.0 0.00 0.00 0.00 81 1019.5
20260509085505 60 127 4.0 5.0 0.00 0.00 0.00 80 1019.6
20260509084304 60 119 4.0 9.0 0.00 0.00 0.00 79 1019.5
20260509083704 61 136 3.0 6.0 0.00 0.00 0.00 77 1019.4
20260509082504 64 123 5.0 7.0 0.00 0.00 0.00 67 1019.2
20260509081905 65 114 5.0 7.0 0.00 0.00 0.00 64 1019.1
20260509081305 66 111 5.0 9.0 0.00 0.00 0.00 61 1019.0
20260509080705 67 118 5.0 9.0 0.00 0.00 0.00 59 1019.0
20260509080105 68 110 5.0 8.0 0.00 0.00 0.00 57 1018.9
20260509074305 71 109 5.0 6.0 0.00 0.00 0.00 52 1018.6
20260509073705 71 115 6.0 9.0 0.00 0.00 0.00 49 1018.5
20260509073104 71 111 6.0 9.0 0.00 0.00 0.00 47 1018.6
20260509072505 72 115 5.0 7.0 0.00 0.00 0.00 45 1018.4
20260509071905 72 116 5.0 7.0 0.00 0.00 0.00 44 1018.4
20260509071304 73 113 5.0 7.0 0.00 0.00 0.00 42 1018.3
20260509070705 73 118 5.0 8.0 0.00 0.00 0.00 41 1018.2
20260509065505 74 115 6.0 8.0 0.00 0.00 0.00 39 1018.1
20260509064304 75 111 7.0 11.0 0.00 0.00 0.00 38 1018.0
20260509063704 75 109 7.0 11.0 0.00 0.00 0.00 36 1018.0
20260509063104 75 109 8.0 12.0 0.00 0.00 0.00 34 1017.8
20260509062505 75 111 8.0 15.0 0.00 0.00 0.00 33 1017.8
20260509061905 76 106 9.0 15.0 0.00 0.00 0.00 32 1017.7
20260509061305 76 108 9.0 14.0 0.00 0.00 0.00 31 1017.7
20260509060104 76 111 9.0 16.0 0.00 0.00 0.00 32 1017.6
20260509055504 76 118 10.0 14.0 0.00 0.00 0.00 32 1017.4
20260509054904 76 100 14.0 14.0 0.00 0.00 0.00 33 1017.4
20260509054304 76 100 14.0 18.0 0.00 0.00 0.00 33 1017.2
20260509053105 77 114 13.0 17.0 0.00 0.00 0.00 33 1017.2
20260509052504 77 111 13.0 17.0 0.00 0.00 0.00 33 1017.0
20260509051904 77 98 11.0 15.0 0.00 0.00 0.00 33 1017.1
20260509050704 78 104 10.0 15.0 0.00 0.00 0.00 33 1017.0
20260509045505 78 105 9.0 13.0 0.00 0.00 0.00 34 1017.0
20260509044905 78 104 9.0 13.0 0.00 0.00 0.00 35 1017.0
20260509043104 79 108 10.0 14.0 0.00 0.00 0.00 35 1017.0
20260509042505 78 94 9.0 14.0 0.00 0.00 0.00 34 1017.0
20260509041905 78 97 9.0 15.0 0.00 0.00 0.00 35 1016.9
20260509041305 78 96 9.0 15.0 0.00 0.00 0.00 35 1017.0
20260509040705 79 99 8.0 15.0 0.00 0.00 0.00 34 1017.0
20260509035505 79 97 9.0 16.0 0.00 0.00 0.00 33 1017.1
20260509034905 79 85 10.0 15.0 0.00 0.00 0.00 33 1017.3
20260509034304 79 85 9.0 14.0 0.00 0.00 0.00 33 1017.2
20260509033705 79 94 8.0 12.0 0.00 0.00 0.00 34 1017.3
20260509033105 79 90 8.0 11.0 0.00 0.00 0.00 34 1017.5
20260509032505 79 93 7.0 11.0 0.00 0.00 0.00 35 1017.5
20260509031905 79 107 9.0 16.0 0.00 0.00 0.00 33 1017.5
20260509030704 79 90 9.0 12.0 0.00 0.00 0.00 35 1017.6
20260509030104 78 88 9.0 14.0 0.00 0.00 0.00 35 1017.6
20260509024905 78 99 9.0 13.0 0.00 0.00 0.00 35 1018.0
20260509024305 78 111 8.0 15.0 0.00 0.00 0.00 36 1018.0
20260509023705 78 110 9.0 15.0 0.00 0.00 0.00 36 1018.1
20260509021904 78 111 7.0 14.0 0.00 0.00 0.00 37 1018.1
20260509021304 78 128 6.0 12.0 0.00 0.00 0.00 37 1018.4
20260509020704 78 130 6.0 9.0 0.00 0.00 0.00 38 1018.5
20260509020105 78 131 8.0 14.0 0.00 0.00 0.00 39 1018.6
20260509014905 77 99 10.0 15.0 0.00 0.00 0.00 40 1018.8
20260509014305 78 103 10.0 17.0 0.00 0.00 0.00 40 1019.0
20260509013705 78 97 9.0 17.0 0.00 0.00 0.00 39 1019.0
20260509013105 77 96 9.0 13.0 0.00 0.00 0.00 41 1019.1
20260509012505 77 102 9.0 14.0 0.00 0.00 0.00 42 1019.2
20260509011905 76 102 9.0 17.0 0.00 0.00 0.00 44 1019.3
20260509011305 77 137 6.0 10.0 0.00 0.00 0.00 41 1019.4
20260509010705 76 171 6.0 9.0 0.00 0.00 0.00 40 1019.5
20260509005504 76 178 7.0 11.0 0.00 0.00 0.00 39 1019.6
20260509004904 75 161 5.0 10.0 0.00 0.00 0.00 40 1019.6
20260509004305 76 158 5.0 8.0 0.00 0.00 0.00 40 1019.7
20260509003705 75 144 6.0 12.0 0.00 0.00 0.00 40 1019.8
20260509002505 75 157 4.0 9.0 0.00 0.00 0.00 37 1020.0
20260509001904 74 185 5.0 7.0 0.00 0.00 0.00 38 1020.0
20260509001304 74 113 5.0 10.0 0.00 0.00 0.00 38 1020.0
20260509000704 74 112 4.0 7.0 0.00 0.00 0.00 38 1020.1
20260509000105 73 167 5.0 8.0 0.00 0.00 0.00 38 1020.0
20260508233705 70 248 3.0 6.0 0.00 0.00 0.00 41 1020.0
20260508233104 70 260 3.0 6.0 0.00 0.00 0.00 41 1019.9
20260508231304 69 277 3.0 6.0 0.00 0.00 0.00 42 1020.0
20260508230704 68 266 3.0 5.0 0.00 0.00 0.00 43 1020.0
20260508230104 67 272 3.0 5.0 0.00 0.00 0.00 43 1020.0
20260508225504 67 251 2.0 3.0 0.00 0.00 0.00 43 1020.0
20260508224305 66 203 2.0 4.0 0.00 0.00 0.00 43 1019.9
20260508223705 66 225 2.0 3.0 0.00 0.00 0.00 43 1019.9
20260508223105 66 238 2.0 3.0 0.00 0.00 0.00 43 1019.8
20260508222505 64 210 2.0 3.0 0.00 0.00 0.00 45 1019.8
20260508221905 64 200 2.0 2.0 0.00 0.00 0.00 44 1019.7
20260508221304 63 216 2.0 3.0 0.00 0.00 0.00 45 1019.5
20260508220704 62 206 2.0 3.0 0.00 0.00 0.00 46 1019.5
20260508220105 61 208 2.0 3.0 0.00 0.00 0.00 48 1019.5
20260508215505 60 245 2.0 3.0 0.00 0.00 0.00 50 1019.5
20260508214905 59 250 2.0 3.0 0.00 0.00 0.00 55 1019.6
20260508214305 57 253 2.0 3.0 0.00 0.00 0.00 57 1019.5
20260508213705 56 238 3.0 3.0 0.00 0.00 0.00 65 1019.5
20260508213105 55 237 3.0 5.0 0.00 0.00 0.00 62 1019.5
20260508211905 52 255 3.0 5.0 0.00 0.00 0.00 65 1019.4
20260508211305 52 234 2.0 5.0 0.00 0.00 0.00 64 1019.4
20260508210704 51 233 2.0 3.0 0.00 0.00 0.00 63 1019.2
20260508205504 52 215 2.0 5.0 0.00 0.00 0.00 61 1019.0
20260508204904 52 217 2.0 3.0 0.00 0.00 0.00 59 1019.0
20260508204304 51 197 2.0 3.0 0.00 0.00 0.00 60 1019.0
20260508203704 51 182 2.0 3.0 0.00 0.00 0.00 57 1019.0
20260508203104 52 171 1.0 2.0 0.00 0.00 0.00 60 1019.0
20260508201904 51 201 3.0 5.0 0.00 0.00 0.00 60 1018.6